Regional Weather Roundup
Issued by NWS

Home | Current Version | Previous Version | Text Only | Print | Product List | Glossary Off
Versions: 1 2 3 4 5 6 7 8 9 10 11 12 13 14 15 16 17 18 19 20 21 22 23 24 25 26 27 28 29 30 31 32 33 34 35 36 37 38 39 40 41 42 43 44 45 46 47 48 49 50

000
ASUS43 KMPX 261901
RWRMN
WEATHER ROUNDUP FOR MINNESOTA
NATIONAL WEATHER SERVICE TWIN CITIES/CHANHASSEN MN
100 PM CST SUN FEB 26 2017


NOTE: "FAIR" INDICATES FEW OR NO CLOUDS BELOW 12,000 FEET WITH NO
SIGNIFICANT WEATHER AND/OR OBSTRUCTIONS TO VISIBILITY. N/A MEANS
CURRENT SKY AND/OR WEATHER CONDITIONS ARE NOT AVAILABLE.

MNZ060>063-068>070-262000-
   Twin Cities Metro

CITY           SKY/WX    TMP DP  RH WIND       PRES   REMARKS
TWIN CITIES    PTSUNNY   39  19  44 NW20G25   29.79S
ST PAUL        MOSUNNY   39  21  48 W17       29.80S
CRYSTAL        CLOUDY    39  16  39 W20G28    29.77S
BLAINE         PTSUNNY   39  19  45 W14G20    29.77S
LAKEVILLE      MOSUNNY   36  25  64 W15G24    29.79F
EDEN PRAIRIE   MOSUNNY   37  20  50 W18G25    29.78F
SOUTH ST PAUL  MOSUNNY   37  20  50 W14G21    29.78F
LAKE ELMO      PTSUNNY   37  23  56 W13G25    29.79S
$$
MNZ001>005-007-008-013>017-022>024-027-028-262000-
   Northwest Minnesota

CITY           SKY/WX    TMP DP  RH WIND       PRES   REMARKS
BEMIDJI        SUNNY     18   5  57 NW7       29.79S WCI   9
HALLOCK        SUNNY     14   5  67 W8        29.83F WCI   3
ROSEAU         SUNNY     16   7  67 W8        29.80S WCI   5
WARROAD        SUNNY     16   3  57 SW10G17   29.79F WCI   3
THIEF RVR FALL   N/A    N/A N/A N/A MISG        N/A
CROOKSTON      SUNNY     16   7  67 W8        29.87S WCI   5
FOSSTON        SUNNY     19   7  58 SW5       29.82F WCI  13
DETROIT LAKES  SUNNY     18  10  73 N6        29.83S WCI   9
MOORHEAD       SUNNY     16   9  73 W3        29.88S
PARK RAPIDS    SUNNY     21   4  47 W7        29.78S WCI  12
MAHNOMEN       FAIR      15   7  69 NW3       29.83S
$$
MNZ006-009>011-018-025>026-262000-
   North Central Minnesota

CITY           SKY/WX    TMP DP  RH WIND       PRES   REMARKS
BAUDETTE       SUNNY     17   2  51 NW12      29.77F WCI   4
FLAG ISLAND    MOSUNNY   18   1  49 NW12      29.76S WCI   5
INTL FALLS     MOSUNNY   15  -1  49 W13       29.76S WCI   1
WASKISH        SUNNY     16   3  57 SW8       29.80S WCI   5
BIG FORK       SUNNY     21   1  42 W9        29.76F WCI  11
LONGVILLE      SUNNY     19   5  53 NW3       29.80R
GRAND RAPIDS   SUNNY     21   5  50 NW8       29.79S WCI  11
CRANE LAKE     MOSUNNY   14   0  52 NW8G16    29.76F WCI   3
ORR            SUNNY     16   0  48 NW12G17   29.72S WCI   3
COOK           MOSUNNY   18   3  53 W9G18     29.74S WCI   6
WALKER         FAIR      19   4  52 NW6       29.78F WCI  10
$$
MNZ012-019>021-037-262000-
   Northeast Minnesota

CITY           SKY/WX    TMP DP  RH WIND       PRES   REMARKS
DULUTH         SUNNY     20   6  55 NW16G29   29.72R WCI   6
ELY            SUNNY     16   1  53 W14G22    29.70R WCI   1
HIBBING        SUNNY     16   1  51 NW17      29.74S WCI   0
EVELETH        SUNNY     19  -3  38 NW12G17   29.74S WCI   6
DULUTH HARBOR  SUNNY     25  14  63 NW15      29.78R WCI  12
TWO HARBORS    SUNNY     25  10  54 NW13G24   29.70R WCI  13
SILVER BAY     SUNNY     25   5  42 W9G20     29.68R WCI  15
GRAND MARAIS     N/A     26  10  50 VRB7G23   29.67R WCI  18
G MARAIS ARPRT FLURRIES  18   3  53 W16G25    29.59S WCI   3
$$
MNZ029>031-032-039>041-046>048-054>057-064-262000-
   West Central Minnesota

CITY           SKY/WX    TMP DP  RH WIND       PRES   REMARKS
FERGUS FALLS   SUNNY     16  10  79 NW9       29.90S WCI   4
WHEATON        SUNNY     19  10  68 N7        29.89S WCI  10
MORRIS         SUNNY     23  12  63 NW13      29.85S WCI  11
ALEXANDRIA     SUNNY     24  12  60 NW13      29.82S WCI  12
ELBOW LAKE     FAIR      15   9  74 W10       29.86S WCI   3
WADENA         SUNNY     19   9  63 W8        29.81R WCI   9
GLENWOOD       SUNNY     27  12  54 W15       29.83R WCI  15
APPLETON       SUNNY     27  14  59 NW7       29.86F WCI  19
BENSON         SUNNY     28   9  43 N9G16     29.87R WCI  20
ORTONVILLE       N/A     27  14  59 CALM      29.86F
MADISON        SUNNY     30  18  59 NW6       29.87R WCI  24
WILLMAR        FAIR      28  19  69 NW17      29.85S WCI  16
$$
MNZ033>034-036-042>043-049>051-058-059-262000-
   Central Minnesota

CITY           SKY/WX    TMP DP  RH WIND       PRES   REMARKS
ST CLOUD       PTSUNNY   31  14  49 NW17      29.79R WCI  19
SAUK CENTRE    FAIR      26  12  55 NW13      29.82R WCI  15
PAYNESVILLE    MOSUNNY   29  15  56 NW15      29.82S WCI  18
AITKIN         SUNNY     25   5  42 NW8       29.77F WCI  16
PINE RIVER     SUNNY     21   9  58 NW6       29.83S WCI  14
BRAINERD       SUNNY     22   6  50 N7        29.80S WCI  13
STAPLES        SUNNY     21   9  58 NW8       29.81R WCI  12
LONG PRAIRIE   FAIR      27  10  50 W14       29.81S WCI  15
LITTLE FALLS   MOSUNNY   28  10  47 NW8G17    29.80S WCI  20
LITCHFIELD     MOSUNNY   34  18  51 NW16      29.82R WCI  23
BUFFALO        MOSUNNY   34  18  52 W14       29.81R WCI  24
MAPLE LAKE     MOSUNNY   35  19  52 W9G16     29.81R WCI  28
HUTCHINSON     MOSUNNY   33  22  64 W16       29.83R WCI  23
$$
MNZ037-044-045-052-053-262000-
   East Central Minnesota

CITY           SKY/WX    TMP DP  RH WIND       PRES   REMARKS
PRINCETON      MOSUNNY   34  18  51 W10G21    29.79R WCI  26
MORA           SUNNY     30  14  51 NW13      29.80R WCI  20
CAMBRIDGE      MOSUNNY   34  19  55 NW16      29.77R WCI  23
RUSH CITY      CLOUDY    30  18  59 NW13G18   29.78R WCI  20
MOOSE LAKE     SUNNY     27  10  50 NW12G20   29.76R WCI  16
HINCKLEY       MOCLDY    30  16  55 NW10      29.77S WCI  21
CLOQUET        SUNNY     21   7  53 W12G21    29.75R HAZE    WCI   9
MCGREGOR       SUNNY     23  10  58 NW9       29.78S WCI  13
$$
MNZ071>073-080-081-089-090-097-098-262000-
   Southwest Minnesota

CITY           SKY/WX    TMP DP  RH WIND       PRES   REMARKS
MONTEVIDEO     SUNNY     30  18  59 N8        29.88R WCI  23
GRANITE FALLS  SUNNY     32  20  63 W12       29.88R WCI  23
CANBY          SUNNY     31  20  63 CALM      29.87S
MARSHALL       SUNNY     31  22  69 N12       29.85S WCI  22
REDWOOD FALLS  SUNNY     34  16  47 NW13G20   29.85R WCI  25
OLIVIA         SUNNY     32  21  64 NW10G20   29.84S WCI  24
PIPESTONE      SUNNY     37  19  48 W10       29.82S
WINDOM         SUNNY     37  25  60 W8        29.83F
WORTHINGTON    SUNNY     33  26  75 W13       29.86R WCI  24
JACKSON        SUNNY     32  27  80 SW10      29.85S WCI  24
TRACY          SUNNY     36  27  68 NW9G16    29.84S
SLAYTON        SUNNY     35  21  55 W15       29.83S WCI  26
$$
MNZ065>067-074>077-082>085-091>093-262000-
   South Central Minnesota

CITY           SKY/WX    TMP DP  RH WIND       PRES   REMARKS
MANKATO          N/A     35  24  64 W13       29.84S WCI  26
NEW ULM        SUNNY     37  21  52 W14       29.83S
ST JAMES       MOSUNNY   36  27  69 W9        29.86S
FAIRMONT       SUNNY     35  25  66 W12       29.86S WCI  27
GLENCOE        SUNNY     34  25  69 W15G24    29.81S WCI  25
FARIBAULT      PTSUNNY   34  25  69 W12       29.83S WCI  25
OWATONNA       MOSUNNY   30  21  69 SW12      29.83S WCI  21
WASECA         SUNNY     32  27  80 SW9       29.85F WCI  24
ALBERT LEA     SUNNY     30  21  69 W10       29.85R WCI  21
$$
MNZ078>079-086>088-094>096-262000-
   Southeast Minnesota

CITY           SKY/WX    TMP DP  RH WIND       PRES   REMARKS
ROCHESTER      SUNNY     30  23  75 W16       29.82S WCI  19
RED WING       SUNNY     34  19  55 W8        29.80F WCI  27
STANTON        MOSUNNY   35  25  66 W8G17     29.80F WCI  29
WINONA         CLOUDY    36  25  64 W6        29.83S
AUSTIN         SUNNY     30  21  69 SW12      29.84S WCI  21
PRESTON        SUNNY     32  22  66 SW13      29.83R WCI  23
$$
ABBREVIATIONS USED IN REMARKS
   TC - TEMPERATURES IN CELSIUS
  WCI - WIND CHILL INDEX
   HX - HEAT INDEX
  VSB - VISIBILITY
$$




USA.gov is the U.S. government's official web portal to all federal, state and local government web resources and services.